Theta_e
314 309 312 317 320 324 326 326 325 323 325 327 327 327 326 327 327 327 327 326 325 324 323 323 323 324 323 323 323 322 323 323 323 324 324 325 324 326 327 327 327 323 317 316 314 313 313 312 312 311 312 314 318 320 319 321 324 325 331 329 325 331 329 327 326 323 325 323 320 320 321 322 320 318 316 317 319 321 326 328 328 333 336 335 333 334 335 336
317 312 310 313 317 322 326 326 325 324 324 326 327 327 327 327 326 326 326 326 326 324 323 323 323 323 323 323 323 323 323 323 323 323 324 323 323 324 326 327 325 320 317 315 314 313 313 314 311 311 312 313 317 318 319 322 321 326 331 327 329 334 327 320 318 319 323 321 319 320 321 321 320 317 317 318 319 322 326 324 330 340 338 335 334 335 336 335
318 316 311 310 317 322 325 326 325 325 324 325 327 327 328 327 326 325 325 325 326 325 324 323 323 323 323 322 322 323 323 323 323 323 323 322 323 323 324 327 324 318 318 315 313 314 312 313 311 311 313 312 316 318 320 321 319 325 326 325 333 329 319 317 315 317 320 320 319 320 319 321 319 317 317 319 319 321 325 324 332 341 340 338 335 334 336 335
316 318 313 310 317 322 324 326 325 325 324 324 326 327 328 327 326 325 324 325 326 326 325 324 324 323 323 322 323 323 322 324 324 323 323 322 323 323 324 327 325 320 316 314 314 314 312 311 311 312 313 313 316 317 319 320 319 322 321 326 330 320 316 317 315 316 318 319 319 320 320 320 319 317 317 318 319 319 320 322 329 338 339 338 336 334 335 335
313 316 315 311 316 321 322 325 325 324 324 323 326 327 327 327 326 325 325 325 326 326 325 325 324 324 323 322 323 322 323 328 327 322 322 322 322 323 323 325 326 321 314 314 316 315 313 311 312 314 314 313 315 317 319 320 318 319 319 323 322 317 318 315 315 316 316 318 320 320 320 319 317 317 317 318 320 320 318 318 323 334 338 337 336 334 334 334
311 314 316 311 313 318 321 325 325 324 324 323 325 326 327 327 326 326 325 325 326 326 326 325 325 324 323 323 323 323 324 329 325 319 322 322 322 323 322 323 327 322 314 315 317 316 316 314 314 316 316 313 313 315 316 317 318 318 320 320 317 317 318 315 316 316 316 319 320 320 319 317 317 317 317 317 319 319 318 318 320 331 336 335 335 334 335 334
313 313 315 314 312 315 319 324 326 324 324 323 324 325 326 327 326 326 326 326 326 325 326 325 325 324 323 323 323 323 324 326 320 318 320 322 322 322 322 323 327 324 316 315 317 319 320 320 319 315 313 313 312 312 313 314 317 317 318 319 316 316 316 315 316 315 317 319 318 320 318 317 319 319 317 317 318 318 321 317 316 328 335 335 335 334 334 334
313 313 314 315 313 312 314 320 325 324 324 323 323 324 326 326 326 326 326 326 326 326 325 325 325 324 324 323 322 323 323 324 321 320 320 323 323 323 323 324 327 324 316 315 318 319 320 323 321 313 312 313 311 313 312 313 316 317 318 318 316 315 315 314 315 315 316 317 317 319 318 318 319 318 317 318 318 318 323 320 317 328 334 334 335 334 333 333
313 313 313 315 314 312 310 315 322 325 324 323 323 324 325 326 326 326 326 326 326 326 325 325 325 324 324 322 322 324 325 323 321 320 322 325 325 323 323 324 325 321 315 315 316 316 320 323 318 312 312 312 311 312 312 314 317 316 316 318 316 314 313 313 314 314 315 315 317 319 318 316 315 316 317 318 318 319 323 325 323 329 335 336 335 334 332 332
313 314 313 314 316 314 310 311 320 324 323 323 323 323 325 325 326 326 326 326 325 325 325 325 325 323 322 321 323 326 325 323 322 319 322 325 325 324 325 324 321 318 314 314 314 314 319 319 314 312 311 311 311 311 312 315 317 314 314 317 316 314 313 313 314 314 315 315 316 319 316 315 314 314 317 317 319 321 324 327 326 329 334 336 335 333 332 331
313 313 314 315 316 314 310 310 319 324 323 323 323 323 324 325 326 326 325 326 325 325 324 324 325 323 320 320 324 325 322 322 323 320 321 325 325 325 326 323 319 316 313 312 313 314 316 314 311 311 310 310 311 311 312 314 315 315 315 315 314 314 313 314 314 314 314 314 315 317 315 314 315 315 317 317 318 321 324 325 326 328 330 332 334 333 331 331
314 313 314 316 316 314 309 311 319 323 323 323 323 323 324 324 325 325 325 325 325 325 324 324 325 322 320 321 324 324 319 322 324 319 321 324 324 325 326 323 318 316 314 312 312 314 315 314 311 310 310 311 311 311 312 312 314 316 316 315 314 313 314 314 314 314 314 314 315 315 314 314 315 315 317 319 318 320 323 324 325 326 327 330 332 332 331 331
315 313 314 316 316 313 309 312 320 324 323 323 323 323 323 323 324 324 325 325 325 325 324 324 323 320 320 322 323 321 318 320 321 318 321 324 324 325 327 323 317 316 316 313 313 314 315 314 311 310 310 310 310 310 311 312 313 315 315 315 315 313 315 316 314 314 314 314 315 314 314 317 317 315 316 318 317 319 321 323 323 323 324 327 330 331 331 329
316 314 314 317 316 313 309 313 321 324 323 323 323 322 322 323 324 324 324 325 325 324 324 323 321 319 320 321 320 319 317 318 320 318 319 324 323 322 325 323 318 317 317 316 314 314 315 314 311 311 310 310 311 310 312 313 313 314 313 315 318 317 319 318 313 314 315 314 315 313 314 319 319 316 314 315 316 317 319 320 321 320 321 323 326 328 330 329
317 315 315 317 316 313 310 312 320 323 323 324 323 322 322 322 323 324 325 325 324 324 322 320 319 319 321 319 314 316 317 317 320 318 317 321 320 318 320 320 317 316 316 316 316 315 315 313 311 310 310 310 311 310 312 314 313 313 314 316 318 318 321 318 312 315 316 314 313 313 315 318 319 317 314 313 315 316 317 317 318 318 319 322 325 326 328 328
317 315 316 318 315 314 312 311 319 324 323 324 323 322 322 323 324 324 324 323 323 323 320 318 319 320 322 318 312 315 316 316 318 318 316 317 318 317 317 316 314 313 314 314 315 314 313 311 310 311 310 310 310 311 313 314 314 313 315 319 320 317 319 317 313 315 315 315 313 312 316 318 317 315 312 312 314 316 316 316 317 317 317 320 324 326 328 329
317 316 317 317 314 315 315 312 318 324 322 323 323 321 322 324 324 324 323 322 323 322 319 318 318 320 320 314 313 315 314 314 316 317 316 315 317 316 314 313 310 310 311 310 311 312 310 310 311 311 311 311 311 312 313 313 315 315 313 318 322 317 317 317 315 315 314 314 313 312 314 317 316 313 313 313 313 315 315 315 316 317 316 318 323 327 328 330
317 317 317 316 313 316 317 313 316 323 322 322 321 321 323 324 323 323 321 321 321 318 317 317 317 323 322 313 312 315 313 313 315 315 314 314 317 317 314 312 309 309 310 310 310 309 310 311 311 312 311 311 311 311 314 317 320 320 315 314 318 316 315 317 317 316 315 314 314 313 313 316 316 313 313 314 313 314 315 314 315 316 317 317 321 326 327 328
318 318 317 316 315 317 318 315 317 322 322 321 321 321 323 322 321 321 320 320 319 317 318 317 318 325 324 315 312 313 312 313 313 312 311 312 315 315 313 311 310 310 311 312 312 310 311 312 311 311 311 311 310 309 314 320 321 321 317 314 315 316 314 317 317 315 314 314 315 315 313 315 315 313 314 314 313 313 314 314 313 314 316 316 318 323 325 326
318 318 317 317 317 317 319 320 320 322 321 321 321 320 320 320 321 321 319 318 318 318 319 317 319 321 318 314 312 311 313 312 311 310 310 312 313 313 311 309 311 311 311 313 312 310 311 312 311 311 311 310 310 310 312 314 314 315 316 314 315 317 315 316 316 315 315 314 315 315 314 314 314 313 314 314 314 314 314 314 313 313 314 315 317 319 322 324
319 318 317 318 318 318 320 322 321 322 321 320 319 319 321 319 321 322 320 319 317 317 317 316 319 318 314 313 312 311 312 311 311 310 310 311 312 314 311 309 311 310 310 312 312 311 311 311 312 311 311 311 310 311 311 310 311 313 317 317 315 316 316 315 314 314 314 314 316 316 315 314 315 315 314 314 314 314 314 313 313 313 313 314 315 317 319 319
318 317 317 318 318 318 320 321 321 321 320 320 319 319 319 317 318 319 320 320 319 317 317 316 318 315 312 312 312 312 313 312 312 310 310 310 311 314 312 310 311 310 310 311 311 311 310 311 312 310 311 312 311 311 310 310 311 314 317 317 316 318 316 315 315 315 314 314 317 318 316 316 317 315 313 314 315 314 313 313 313 313 313 313 314 315 317 317
318 317 317 319 319 319 320 320 320 320 319 319 318 318 317 315 316 317 319 321 321 319 316 315 317 314 311 312 312 313 314 314 312 310 310 310 311 313 311 310 310 310 310 310 311 312 312 312 312 312 311 311 311 310 310 311 311 315 319 315 317 319 316 316 316 314 313 313 316 317 316 317 316 315 316 316 316 315 313 313 313 313 314 314 314 315 316 317
317 317 317 319 320 320 320 319 320 319 319 318 317 316 316 316 317 318 319 321 322 321 316 315 318 314 311 312 312 314 315 314 312 310 310 310 311 312 311 310 310 310 310 310 311 312 313 313 312 313 311 310 312 311 311 311 311 317 322 318 318 319 318 319 317 314 314 314 316 314 315 319 317 315 317 316 316 314 313 314 312 313 315 314 315 315 316 318
317 317 318 319 320 319 319 320 319 318 318 317 315 315 315 316 317 318 320 323 324 321 316 316 318 316 312 312 312 313 313 313 312 310 310 310 311 311 311 310 310 311 310 310 311 312 313 312 312 313 311 310 312 312 313 314 312 315 320 320 320 322 323 320 317 316 315 315 317 313 314 324 325 318 316 314 314 313 313 315 313 313 315 314 315 315 316 317
317 318 319 319 320 319 319 319 318 317 317 315 315 314 316 317 317 317 319 323 324 320 315 317 320 318 312 312 312 312 313 313 311 310 310 310 311 311 311 311 311 312 311 310 312 315 313 310 311 313 314 314 314 314 316 317 314 312 318 322 320 325 327 323 319 317 316 316 316 314 315 321 323 322 322 317 315 315 312 314 315 312 313 314 314 314 314 315
318 319 319 319 319 318 319 319 317 317 316 315 314 314 317 317 316 316 318 321 324 319 314 316 318 317 312 311 311 313 315 314 310 310 310 311 311 311 311 312 311 311 311 310 312 315 313 310 313 315 315 316 315 315 316 317 316 315 322 327 323 323 327 328 323 318 320 319 318 321 319 316 319 322 324 319 316 317 314 312 314 313 312 313 313 313 314 315
319 320 320 319 319 318 318 317 316 316 315 315 314 315 317 316 315 314 318 322 323 316 313 315 314 314 312 311 311 312 313 312 312 312 309 310 311 310 312 312 311 313 311 310 313 313 312 312 314 315 316 317 316 318 320 317 317 319 324 327 325 325 330 332 327 321 320 317 320 326 319 315 324 328 326 321 315 319 321 317 316 314 314 314 313 313 315 316
320 320 319 319 318 317 316 316 316 315 314 314 314 316 315 314 316 316 317 320 317 312 314 314 311 312 312 311 311 311 311 312 314 312 309 310 310 309 312 312 311 314 313 313 315 314 313 313 314 315 315 317 320 325 327 320 315 320 324 325 327 330 330 328 328 325 319 316 325 331 320 314 324 330 326 318 314 318 322 321 318 316 316 316 315 316 316 317
319 319 319 318 317 316 315 315 315 314 314 314 314 315 314 314 317 318 318 317 313 311 313 312 311 312 312 311 311 311 311 312 312 310 310 311 309 309 311 312 313 319 321 322 321 316 312 311 316 317 314 317 322 321 321 322 319 321 324 325 324 327 330 330 332 328 317 320 333 335 324 314 317 329 326 317 318 320 317 318 317 316 317 316 316 316 315 316
319 319 318 317 316 315 315 315 314 314 314 314 314 314 313 316 317 317 316 315 312 312 311 312 313 312 311 311 311 312 311 312 310 310 311 311 310 310 311 312 315 320 323 322 320 317 314 311 314 316 311 315 319 316 317 322 321 322 326 325 319 322 332 334 330 323 318 325 332 326 322 317 316 327 327 319 322 320 315 318 317 317 321 321 318 317 317 318
318 318 317 316 315 314 315 314 313 314 314 313 314 312 311 314 314 315 314 312 312 312 312 314 313 312 312 311 311 312 312 312 310 310 311 311 310 310 312 313 314 316 316 318 319 318 316 314 314 314 312 314 318 316 317 320 319 321 323 319 316 319 324 324 323 321 321 325 322 315 317 319 319 321 321 319 320 317 315 316 316 319 326 328 324 322 323 326
318 318 316 315 315 314 314 314 313 314 313 312 313 311 311 312 313 314 311 311 312 312 312 314 313 313 312 311 312 312 313 312 310 310 311 311 311 310 313 315 316 317 317 318 320 318 318 317 314 315 313 313 316 314 314 318 318 317 317 317 321 323 316 315 321 320 320 322 318 312 315 320 320 319 318 317 315 316 314 313 318 323 327 332 328 325 327 328
317 317 316 314 314 314 314 313 313 313 312 311 311 311 312 312 313 312 310 311 312 311 312 313 313 314 312 312 312 311 313 313 310 310 311 311 311 311 312 314 315 319 321 318 318 318 320 318 315 315 314 313 316 316 316 318 317 318 319 320 323 325 321 321 324 322 322 323 317 312 316 321 319 317 320 318 314 316 314 316 325 327 328 333 329 326 328 327
317 316 315 313 313 313 313 312 313 313 311 311 311 311 312 312 311 311 310 310 311 311 312 313 313 314 314 314 313 312 316 315 310 310 311 311 311 311 311 311 312 317 319 316 315 316 318 318 316 316 315 314 316 318 317 316 315 318 320 321 321 324 330 331 327 326 326 323 317 315 320 326 320 316 318 317 315 316 315 317 322 321 322 325 324 324 326 326
317 315 314 313 312 313 312 313 312 312 311 310 312 312 312 311 310 311 311 310 310 311 312 313 314 314 314 314 313 312 316 316 312 311 312 311 310 311 311 311 312 314 314 314 316 316 316 316 316 316 314 313 315 316 316 315 316 317 317 322 324 325 333 330 320 318 318 318 320 318 319 325 320 316 319 317 315 315 315 317 317 317 319 320 321 324 323 324
315 313 313 312 312 312 312 312 312 311 310 310 312 312 311 310 310 311 311 310 310 311 313 315 315 315 314 314 313 313 314 315 312 312 312 311 311 311 310 311 312 312 313 314 314 315 318 317 314 315 315 313 312 314 316 316 316 318 318 320 320 319 326 326 318 317 315 316 320 316 317 324 320 318 322 319 316 316 315 317 316 317 320 320 322 324 324 327
314 313 313 312 312 312 312 312 312 310 310 310 311 312 311 310 310 311 311 310 310 311 313 315 315 314 314 314 313 312 314 315 312 312 313 311 312 312 309 310 312 311 313 314 314 316 321 320 313 313 315 315 315 315 315 313 312 317 319 318 319 318 318 320 318 320 319 316 320 320 319 322 319 321 323 315 315 320 318 316 315 316 319 320 322 324 326 329
314 314 314 312 311 312 312 311 311 310 310 311 311 311 311 312 313 312 310 310 311 312 313 314 314 314 314 313 313 312 313 314 312 312 313 311 314 314 309 310 312 312 312 314 317 317 319 322 317 313 314 316 316 315 316 315 311 314 315 313 317 320 318 319 320 323 322 317 320 322 318 322 326 326 321 313 314 320 319 318 319 318 319 321 323 324 327 331
314 314 314 312 311 312 311 311 310 310 311 310 310 310 311 313 313 311 310 311 311 312 313 313 313 314 313 313 313 312 313 314 312 312 314 312 312 312 310 310 312 312 313 314 317 316 314 320 321 314 311 313 316 317 318 316 313 314 315 313 314 316 317 320 320 323 323 319 320 318 318 331 338 326 319 316 314 316 320 324 327 327 325 324 325 326 329 332
314 312 312 312 311 311 310 310 310 310 311 310 309 310 311 313 313 311 312 312 312 314 313 312 313 313 313 313 313 312 313 314 312 312 314 312 311 313 312 311 312 313 313 314 318 319 316 317 320 316 313 316 320 320 317 317 315 315 315 314 314 315 317 318 318 321 322 320 320 318 318 332 338 325 320 319 316 319 322 325 330 331 327 326 326 326 329 332
313 312 312 311 311 310 310 311 311 310 311 310 309 311 313 314 313 312 313 312 313 315 312 311 312 312 312 312 313 313 313 313 312 312 315 313 312 315 315 312 313 312 313 315 317 321 321 320 320 318 316 318 319 316 313 314 316 316 314 314 313 315 316 316 317 319 317 315 318 317 316 321 327 327 326 323 320 320 321 322 324 325 324 323 323 323 325 328
313 312 312 311 311 310 310 311 311 310 311 310 309 313 316 315 313 312 313 312 313 315 312 311 312 311 312 313 313 314 312 313 313 311 315 315 312 316 316 312 313 311 313 317 317 320 322 321 320 318 315 318 319 315 312 312 314 315 314 315 315 314 315 318 323 323 320 317 316 314 314 316 323 330 328 327 323 320 322 320 317 319 322 323 322 322 324 325
312 312 313 310 310 310 310 311 311 311 312 311 310 315 316 314 313 313 313 313 314 314 312 312 312 310 312 313 313 314 312 314 314 313 315 316 313 317 316 310 312 312 311 315 315 316 319 318 319 319 317 318 320 317 314 313 314 316 318 318 317 316 314 317 321 319 318 321 318 315 315 317 324 327 323 323 322 319 321 319 316 319 321 321 323 324 326 326
312 312 313 310 309 310 310 312 312 310 311 311 312 315 316 314 314 314 314 314 316 317 314 313 313 312 313 314 314 314 313 316 317 314 316 316 315 319 316 311 312 312 312 317 315 316 323 321 318 319 318 317 317 317 316 316 315 318 321 320 317 317 315 317 321 317 315 322 320 315 314 315 320 319 315 317 317 316 317 316 315 317 316 318 324 327 328 327
312 312 312 311 310 311 311 313 314 311 310 311 313 315 316 314 315 316 315 314 317 321 319 316 315 315 314 314 315 314 313 318 319 315 315 317 318 320 318 314 312 312 318 322 317 317 325 321 315 315 316 315 317 319 318 319 316 315 319 319 316 317 316 319 325 320 317 321 319 315 314 314 315 315 315 319 319 319 320 319 319 322 321 323 324 326 328 327
311 313 311 312 312 312 311 312 313 312 309 310 313 314 316 316 315 315 315 316 318 319 318 315 315 315 314 314 315 314 314 317 319 315 316 319 319 317 317 318 315 316 322 320 316 319 322 317 315 316 314 317 324 324 318 316 316 314 316 318 317 318 318 318 320 318 319 320 316 315 316 314 314 315 318 321 320 320 320 319 320 321 323 326 325 325 326 326
308 311 312 313 313 312 312 311 312 312 309 310 312 314 316 317 315 314 316 318 318 317 317 316 315 315 315 314 315 314 314 316 317 316 317 320 318 315 315 317 315 316 318 314 315 322 320 316 316 315 314 320 326 323 317 315 316 315 315 317 317 319 320 318 316 317 319 317 313 314 317 316 313 314 316 317 318 318 316 314 315 315 319 327 326 324 325 326
304 308 311 312 312 312 312 311 311 311 310 310 312 314 315 316 315 315 318 318 316 316 317 316 315 316 315 315 314 313 314 315 315 316 317 316 317 317 316 316 314 314 315 312 315 320 317 317 318 314 314 319 321 319 317 315 316 315 315 316 316 317 318 316 315 315 315 315 313 314 318 317 313 313 315 315 316 316 313 311 313 314 320 327 325 325 328 327
302 305 308 312 313 312 311 311 311 311 310 310 312 314 314 315 315 315 317 316 315 316 316 315 316 317 316 315 315 314 313 314 316 317 315 314 315 316 317 316 315 314 313 312 313 315 315 318 318 314 314 316 316 316 316 316 317 316 315 316 314 315 316 315 314 314 314 315 315 315 317 315 312 313 315 316 316 314 311 312 315 316 320 323 324 326 327 326
296 297 301 308 313 312 311 311 311 312 311 310 312 313 314 314 314 315 316 316 316 316 316 316 316 317 316 316 316 314 314 316 317 315 314 314 315 315 315 316 316 314 314 315 315 314 315 317 315 314 316 314 313 316 317 317 317 316 317 316 314 314 314 313 314 314 314 314 314 315 315 312 313 315 315 315 316 315 314 317 319 319 320 321 323 325 325 324
295 296 299 306 312 312 311 311 311 312 311 310 311 312 313 313 314 314 316 318 317 315 316 317 316 316 316 317 317 316 318 320 316 313 313 313 314 316 315 314 314 315 315 316 316 316 317 318 316 316 317 314 313 317 319 318 316 315 316 316 313 313 313 313 315 315 313 313 314 314 313 312 316 318 315 314 316 317 318 318 318 318 319 320 320 320 321 322
Wind_Speed
28 31 35 33 27 32 42 42 42 43 42 43 42 42 42 40 39 37 35 32 29 28 28 26 22 20 18 17 17 15 15 14 12 12 11 13 17 14 9 10 12 7 0 2 3 6 9 11 14 17 12 3 1 1 1 0 1 3 3 2 2 3 3 4 5 6 6 6 7 7 6 9 5 2 2 3 8 7 6 6 4 6 8 7 16 28 33 32
26 29 34 36 31 30 40 43 41 43 43 43 43 43 42 41 40 38 35 33 30 29 29 27 24 22 20 17 14 13 12 12 11 12 18 17 15 15 13 9 9 7 2 4 6 11 10 6 10 12 6 2 3 1 2 1 1 2 3 2 4 4 4 3 2 4 5 7 9 7 5 7 7 5 4 4 5 6 7 4 4 8 8 11 21 29 31 32
24 27 32 36 34 32 39 45 42 42 43 42 43 43 42 41 40 40 37 34 31 29 29 27 26 24 22 18 14 14 12 8 6 11 21 20 15 17 16 13 10 6 5 7 7 11 10 2 7 7 2 2 2 1 2 1 1 2 3 2 5 4 3 4 4 4 4 9 10 7 5 6 6 4 4 6 7 6 7 4 4 9 8 10 15 23 28 28
25 26 30 35 35 32 35 44 43 42 42 42 42 42 42 41 40 40 38 36 32 29 29 28 27 25 22 18 15 15 10 1 4 11 22 23 18 17 17 17 13 8 7 8 7 9 9 5 4 3 3 2 2 1 0 2 1 1 3 4 5 2 2 4 5 6 2 10 11 8 6 5 5 3 4 8 8 4 6 8 8 11 13 12 12 18 24 24
27 27 30 35 36 31 32 42 43 41 42 41 41 41 41 41 39 39 38 37 34 31 30 29 27 25 22 19 16 16 10 0 4 11 20 23 21 19 18 18 17 12 9 10 8 5 6 6 5 5 4 2 2 3 2 4 2 1 3 6 5 1 1 5 4 5 2 7 9 9 7 5 4 3 5 10 8 6 6 9 11 14 15 16 15 17 20 21
29 29 31 36 39 32 29 42 45 42 43 42 41 41 40 40 40 39 39 38 35 32 30 29 27 25 22 19 18 17 9 2 4 5 12 22 25 22 21 19 19 17 12 12 10 4 4 6 5 3 3 3 3 2 4 4 3 2 5 5 4 1 3 3 3 5 2 7 8 8 7 5 6 3 5 8 6 6 6 8 12 16 19 22 21 19 17 17
28 30 32 35 42 38 30 38 46 44 42 43 42 41 40 40 40 40 40 38 36 34 31 29 27 24 22 21 19 12 6 6 5 3 3 19 30 25 24 22 20 20 15 14 13 5 3 5 3 3 2 2 4 4 4 5 4 5 5 4 3 1 4 2 1 5 2 8 6 6 7 7 8 5 4 4 5 6 5 6 14 19 22 24 19 17 17 18
30 31 34 35 42 44 37 35 43 45 43 43 42 41 41 40 41 40 39 38 36 35 32 29 28 26 25 24 15 4 6 12 10 5 6 16 32 30 27 23 21 22 19 20 19 11 5 3 0 3 2 3 4 5 3 5 2 6 5 4 1 1 2 2 1 4 4 5 3 7 8 6 7 5 4 5 5 5 2 4 13 17 18 18 16 15 16 17
34 33 35 38 40 43 42 38 39 45 43 43 43 42 41 40 40 39 39 38 37 36 32 31 29 28 29 23 10 4 11 21 16 9 7 20 33 33 31 25 24 24 21 21 23 18 10 4 3 2 2 4 6 7 1 3 1 4 6 4 3 1 2 1 2 2 3 2 4 8 5 2 3 3 3 6 7 6 4 9 12 15 15 14 13 14 15 15
40 37 37 40 42 41 40 39 39 45 44 43 43 41 41 41 40 39 39 38 37 36 34 33 31 31 29 18 8 6 10 21 20 9 8 26 33 32 32 28 28 27 22 18 21 19 10 7 7 3 2 5 6 6 1 2 2 3 4 3 4 4 2 2 2 1 2 2 4 7 5 1 1 1 3 6 7 6 8 11 10 13 13 12 11 12 15 16
47 43 40 42 43 41 40 39 39 46 46 43 43 42 40 39 40 40 38 37 36 36 35 34 33 33 27 14 9 7 3 14 22 14 14 28 33 32 31 30 29 29 23 16 17 21 17 14 9 1 2 3 4 5 2 4 2 3 3 2 2 3 1 0 3 2 0 1 2 7 4 0 3 1 6 6 8 8 11 12 10 11 11 10 11 10 12 15
52 49 44 44 45 43 43 42 41 47 47 43 43 42 40 38 39 39 37 37 36 36 37 35 36 34 23 9 9 10 5 11 21 18 20 29 33 31 30 30 29 30 27 17 15 23 24 18 9 2 4 2 3 3 2 2 0 2 3 2 1 1 1 3 3 2 2 1 4 6 3 2 2 6 8 7 9 8 11 12 10 11 9 9 10 9 9 14
53 52 47 45 46 45 46 44 44 49 47 44 44 41 41 38 38 39 38 37 36 37 36 35 36 32 19 5 10 14 9 11 19 21 24 30 30 27 28 30 27 27 29 23 20 26 26 17 9 6 5 3 3 3 1 1 1 3 4 1 1 2 3 5 4 3 3 1 3 5 1 5 8 11 8 7 9 9 10 10 10 9 9 8 9 8 8 13
53 51 49 48 47 47 48 44 42 49 47 44 44 42 41 39 38 39 37 37 35 33 33 36 36 26 12 4 9 16 11 9 19 23 27 30 27 21 25 29 25 23 25 23 23 26 25 17 10 5 5 3 4 3 2 1 1 2 3 2 1 1 4 5 4 6 5 2 1 4 2 5 8 9 7 8 9 11 10 9 9 8 8 8 8 9 9 11
53 51 50 50 49 48 49 45 42 46 47 44 44 43 40 39 39 38 37 36 32 31 33 34 31 18 6 3 7 14 11 11 20 25 27 31 28 20 22 26 22 23 24 22 24 25 22 14 7 4 5 4 3 2 2 1 0 2 3 3 2 3 4 4 2 7 6 1 2 5 2 5 7 7 6 9 9 10 10 8 8 8 8 8 8 9 8 9
52 52 52 50 50 49 48 48 45 46 48 45 44 43 40 39 38 38 38 34 30 34 33 27 21 12 5 4 8 14 12 11 18 24 26 32 31 23 26 26 18 19 19 18 21 20 16 10 3 3 4 3 2 3 2 1 2 2 3 3 3 5 3 3 2 5 5 3 2 3 2 4 5 5 3 7 8 10 9 8 8 8 8 8 7 8 8 8
52 54 53 51 51 49 49 50 47 47 48 46 46 43 40 39 38 37 35 33 30 31 28 23 19 8 2 4 9 12 9 9 18 24 25 28 28 27 27 18 12 15 14 13 14 12 9 6 2 1 3 3 3 4 3 4 4 2 3 3 4 5 4 1 3 4 4 5 5 4 2 5 6 3 3 6 8 9 8 8 9 8 8 7 7 7 8 8
53 55 53 52 52 50 51 54 52 49 50 49 47 44 42 40 39 35 32 31 26 20 14 14 16 6 3 7 9 11 12 16 22 24 22 21 25 30 25 12 9 13 11 8 7 7 5 3 3 2 3 4 5 5 5 5 5 4 4 4 4 2 4 5 3 4 6 5 5 5 3 9 8 4 4 5 5 8 9 9 8 9 9 7 7 7 8 9
54 55 54 53 53 50 50 58 58 54 53 51 48 46 41 35 32 27 27 27 17 10 6 9 13 5 4 12 11 13 19 24 22 18 19 19 23 27 19 12 11 11 8 5 4 6 5 3 4 6 6 6 6 5 5 6 6 6 6 6 5 4 3 4 3 3 6 5 5 7 7 10 9 5 5 7 5 6 7 7 7 8 8 8 8 8 9 10
54 56 56 52 53 48 48 58 62 60 56 53 51 40 26 19 14 9 12 14 9 6 4 9 14 3 4 11 14 17 21 23 16 11 18 21 23 22 12 9 9 6 7 7 5 5 5 5 7 8 7 6 6 5 6 7 3 4 4 5 7 6 3 3 2 4 1 4 5 8 7 8 8 7 7 7 5 6 7 7 8 7 8 9 10 10 11 11
55 55 54 52 52 49 49 54 57 62 59 57 52 26 13 17 12 11 12 7 11 10 1 10 15 2 5 15 22 24 16 11 9 9 20 23 22 19 8 7 9 6 7 8 6 3 5 7 8 8 7 6 7 7 8 9 4 2 4 4 6 6 4 3 2 3 2 2 4 4 5 8 8 8 7 5 6 8 10 10 10 10 9 8 10 12 12 9
55 54 54 53 50 51 56 53 53 61 58 55 42 14 15 21 12 23 23 7 14 13 1 16 16 5 9 20 29 31 14 5 6 7 17 18 15 13 7 8 9 7 8 8 7 5 6 7 7 8 8 7 7 8 9 10 7 2 3 4 4 4 3 2 3 3 3 1 3 2 2 8 9 8 6 6 8 9 11 12 12 11 10 9 10 11 10 8
55 54 54 52 50 54 60 59 58 58 52 47 30 13 21 18 12 27 20 6 12 7 1 16 15 2 8 13 25 31 15 9 9 7 16 17 9 8 8 9 9 8 9 8 9 8 5 6 8 10 10 9 8 8 9 8 6 3 3 4 3 3 4 1 3 2 2 1 2 2 2 6 7 6 6 7 9 8 8 11 10 9 11 12 11 10 10 11
54 56 54 54 55 53 58 64 60 50 47 42 26 21 26 23 29 34 14 6 9 4 4 14 11 4 6 7 19 23 11 9 10 10 19 17 8 6 8 10 10 8 8 9 10 8 6 5 7 9 11 12 8 7 9 6 4 3 3 5 2 2 3 3 2 1 3 3 1 3 4 6 5 5 8 7 8 7 6 8 9 9 10 10 9 9 11 12
55 57 55 56 57 58 61 57 47 43 43 31 21 27 27 28 41 35 13 5 5 2 6 10 5 4 7 10 14 13 7 7 8 12 17 17 13 8 7 7 7 8 9 10 9 7 6 4 6 7 9 12 9 7 9 7 4 5 4 6 6 5 4 4 5 4 3 4 3 2 1 6 5 4 8 6 5 7 6 8 11 11 10 9 8 9 11 11
57 56 58 58 58 67 57 32 31 43 33 18 24 35 30 35 43 30 12 3 3 4 8 10 7 8 11 10 8 8 8 5 6 14 17 17 15 8 7 6 3 7 10 9 5 3 3 1 5 8 8 12 9 5 8 8 6 4 5 4 6 8 7 7 6 3 2 3 3 3 4 5 6 4 8 5 5 9 8 8 11 11 10 9 10 11 10 10
57 56 61 60 63 68 41 16 32 41 21 17 35 39 35 42 37 20 9 1 3 7 8 8 7 11 13 10 10 9 7 6 6 12 15 14 11 5 7 8 4 6 8 6 4 2 3 4 6 8 6 9 8 5 6 7 7 4 4 2 5 8 7 7 6 4 3 3 4 4 3 3 5 6 8 5 5 9 8 8 10 9 10 11 11 11 10 11
56 58 62 64 72 65 37 29 38 27 18 28 41 42 42 41 24 10 7 3 4 6 7 6 6 11 10 9 13 5 4 10 8 8 11 12 8 3 6 9 6 9 8 7 6 2 4 7 9 9 5 5 6 5 6 8 6 4 4 4 6 7 7 6 6 4 1 1 3 5 1 2 5 6 6 4 3 7 8 8 10 10 11 11 12 12 11 11
56 59 63 72 73 52 36 42 34 18 25 36 38 42 41 28 12 5 4 5 4 4 7 7 7 10 7 8 11 4 5 10 6 5 7 7 4 2 5 7 6 9 4 4 7 2 2 6 7 9 6 5 5 3 5 8 5 3 3 5 5 4 5 5 5 4 3 1 5 6 2 2 5 6 4 3 2 6 8 7 8 10 11 11 11 12 12 10
61 60 66 73 59 36 33 36 29 25 32 35 36 39 30 14 7 6 6 5 5 3 5 5 7 12 12 11 8 6 8 5 4 8 6 4 2 1 2 3 5 7 3 4 4 2 2 0 1 3 4 5 5 3 1 4 6 5 5 6 7 5 5 4 3 4 3 2 6 7 5 4 3 5 4 3 5 6 7 6 7 8 9 11 11 10 10 9
66 61 67 65 45 37 33 21 27 39 37 35 37 33 18 5 3 9 7 5 6 4 6 7 8 13 16 15 9 7 8 3 6 13 8 4 3 2 3 3 3 5 3 4 3 3 4 2 0 1 1 2 6 4 4 2 4 7 5 5 4 3 4 4 4 3 2 4 6 5 3 5 4 5 5 5 6 6 6 6 7 8 9 9 8 8 8 7
66 67 68 57 42 40 32 22 36 47 42 42 34 19 10 4 3 6 5 6 6 6 9 13 13 13 17 16 10 8 6 4 9 14 12 8 6 7 7 6 6 5 5 5 2 2 4 1 1 3 2 2 6 5 3 4 1 5 5 6 5 1 2 1 2 1 3 5 4 3 1 3 5 7 8 8 10 10 8 7 7 8 7 6 5 5 4 4
63 72 66 49 40 38 36 38 42 43 44 42 23 6 7 9 8 7 6 6 8 9 12 16 18 19 18 16 11 8 6 5 9 11 11 9 7 7 5 4 6 6 5 5 5 4 1 4 3 3 2 1 4 6 3 1 2 4 6 5 4 3 3 2 3 1 3 4 3 2 2 2 3 5 10 12 14 14 8 6 8 8 7 7 6 4 4 4
61 69 59 40 38 40 43 48 45 44 42 28 13 7 9 10 9 10 10 6 7 11 13 16 20 19 16 13 10 10 6 5 9 10 9 8 8 8 7 7 8 6 5 4 4 5 5 2 2 2 1 1 2 3 4 6 5 4 5 6 5 5 4 4 4 2 4 3 3 3 1 3 2 4 9 10 11 12 8 6 6 6 6 5 4 4 4 4
63 58 47 33 35 44 49 50 48 48 34 14 9 10 10 11 9 10 10 6 8 11 13 17 18 16 13 10 9 10 6 4 8 9 9 10 10 11 9 9 9 6 7 7 3 4 6 2 3 2 1 1 2 2 1 7 5 3 3 5 5 5 4 3 3 4 4 1 1 2 2 4 4 5 9 7 7 8 8 7 5 5 4 1 2 4 5 5
57 41 33 27 33 47 52 49 50 45 25 10 10 10 9 11 9 10 10 9 12 15 17 18 15 13 11 6 8 11 5 4 8 7 6 9 9 10 9 8 9 8 8 8 3 3 6 1 5 4 3 1 2 3 2 3 4 2 3 4 5 4 6 4 1 0 3 1 3 2 3 4 3 5 8 7 7 8 8 7 5 6 5 4 4 6 6 6
42 26 19 21 33 48 52 51 51 37 17 9 11 10 10 9 7 8 9 11 14 17 18 14 11 13 13 8 9 13 9 7 9 7 5 6 6 10 12 8 10 11 7 6 3 2 6 2 4 2 1 2 1 1 2 1 3 4 4 6 3 2 4 3 1 1 2 3 4 1 4 4 2 2 6 6 6 9 9 7 6 6 5 6 8 7 7 7
28 20 11 18 37 47 48 51 44 24 9 8 11 10 8 6 6 9 11 13 16 17 16 11 9 12 14 13 13 16 16 11 11 9 8 7 5 10 15 10 9 12 8 6 4 2 5 3 3 1 1 4 2 3 1 2 1 4 3 3 3 3 3 3 3 3 2 4 4 2 4 3 3 4 5 7 7 8 9 7 5 6 6 6 8 8 7 7
20 14 4 18 40 46 48 46 30 12 7 9 11 10 5 3 5 11 15 16 15 15 14 11 10 10 12 14 13 15 16 13 13 9 7 8 5 8 16 10 7 12 10 8 6 4 5 4 1 2 2 2 3 2 4 1 2 2 1 1 2 3 5 4 4 4 3 3 4 3 3 3 5 6 6 9 10 8 7 6 5 7 6 6 7 7 7 7
12 7 4 21 39 46 49 36 15 8 9 11 10 8 6 5 6 13 19 18 12 9 9 12 13 11 12 12 11 12 11 10 13 9 5 8 5 6 13 11 9 12 9 7 7 5 3 4 2 2 3 1 1 2 6 7 4 2 2 4 2 1 2 2 2 3 4 4 4 2 3 5 6 5 7 10 9 7 6 4 5 6 5 6 6 6 6 6
8 5 5 24 41 47 41 20 8 9 9 10 9 5 7 6 7 13 18 18 10 3 6 12 13 12 12 12 12 12 9 7 11 8 4 7 7 5 9 11 12 13 9 7 7 5 3 4 5 3 1 3 4 4 4 6 4 4 5 7 6 3 4 4 4 1 2 3 4 3 4 7 6 4 6 7 6 6 6 5 5 5 6 6 5 5 6 6
8 5 8 31 48 45 28 11 10 12 8 10 8 4 5 5 8 13 14 15 10 3 6 9 10 11 11 11 12 12 10 8 11 11 5 7 9 5 7 11 14 15 11 6 5 4 4 5 5 2 3 5 6 5 2 1 0 1 3 4 5 5 6 7 6 3 1 3 3 3 5 8 6 5 6 6 6 6 5 5 5 6 6 6 6 5 6 5
7 6 16 40 53 39 18 11 12 9 5 7 6 2 3 4 8 12 11 12 10 6 7 8 9 11 10 10 11 12 11 8 10 11 5 5 7 5 9 15 15 15 11 6 6 5 4 5 4 2 1 3 5 5 2 2 2 1 3 1 3 3 3 5 5 4 4 5 4 3 6 8 5 6 6 5 5 5 5 5 6 7 6 6 6 6 6 6
6 5 11 30 44 30 12 11 15 11 7 8 8 4 1 3 8 11 12 12 9 8 9 9 11 12 10 10 12 15 15 9 8 10 5 5 6 4 11 19 18 15 10 7 9 6 2 3 4 5 2 3 3 4 3 1 2 1 3 2 4 4 2 3 2 3 4 7 7 5 8 8 4 3 4 4 4 5 7 6 6 6 6 6 6 5 5 5
6 4 4 12 23 17 5 4 10 11 11 13 14 8 4 5 7 11 14 10 5 7 8 7 9 10 8 9 10 13 15 8 6 8 4 5 4 0 8 19 20 15 10 9 11 7 4 5 5 7 7 6 6 5 4 4 2 1 4 5 7 6 6 5 4 3 6 6 7 7 10 7 2 2 3 4 4 5 7 5 5 6 6 6 6 5 4 4
5 5 5 5 6 7 3 2 2 8 9 11 10 7 7 7 4 7 12 8 3 6 7 6 9 9 8 12 10 11 13 4 4 8 6 7 5 2 4 14 16 14 11 13 14 8 4 4 6 10 11 10 7 4 5 9 7 6 7 7 7 6 6 5 4 5 6 3 5 10 13 9 6 3 4 5 3 4 6 5 5 5 5 5 5 5 4 4
3 4 9 9 5 6 5 4 2 7 10 11 8 6 10 11 6 5 5 4 6 8 6 5 10 10 12 16 12 11 12 5 5 10 8 5 4 1 1 5 7 10 13 14 12 7 5 4 7 9 8 7 7 6 9 13 12 12 10 9 9 7 7 7 6 7 6 5 7 13 11 12 10 7 7 8 5 5 7 7 7 7 6 5 4 3 3 3
1 3 6 6 7 12 11 10 11 12 15 15 8 7 10 12 12 10 3 2 8 10 7 5 12 16 18 18 13 11 11 6 6 10 7 4 5 4 4 4 3 4 9 9 5 5 6 5 6 6 4 4 7 8 11 13 11 11 11 12 11 10 10 12 14 12 9 8 14 11 8 13 13 9 10 10 7 8 9 7 6 4 4 5 3 2 3 4
2 2 1 2 1 10 11 10 12 14 17 16 9 9 12 13 15 10 3 5 9 9 9 11 15 17 18 18 14 12 13 11 8 8 6 7 8 6 4 3 2 2 5 7 2 2 4 4 4 7 5 4 6 9 11 11 8 8 11 13 14 15 17 18 18 17 12 12 15 7 6 16 13 9 10 9 8 8 5 3 3 2 5 6 3 3 4 6
2 1 2 2 1 5 6 7 7 8 11 11 8 9 13 16 17 10 4 10 13 9 10 16 18 15 15 17 15 15 19 17 14 11 9 10 8 4 4 4 2 3 5 6 2 1 2 4 4 7 6 3 5 5 5 6 8 8 9 12 15 17 19 19 17 12 8 10 14 8 9 15 8 6 9 7 5 3 1 2 5 6 7 5 4 5 6 7
1 1 2 3 2 5 9 8 8 8 9 9 7 9 12 16 18 12 4 4 10 9 9 16 17 11 10 13 14 16 17 15 16 17 17 17 13 7 5 5 7 8 5 4 4 2 3 3 2 6 6 5 4 6 6 6 6 4 9 17 19 17 15 13 11 8 9 13 13 10 11 11 2 5 8 5 4 4 4 6 7 7 7 6 6 7 7 7
1 2 1 2 2 4 9 9 8 9 10 11 10 10 12 13 14 14 7 1 3 8 9 14 15 9 8 12 14 14 13 11 13 13 12 13 11 6 6 8 13 13 9 6 5 3 6 6 3 6 7 4 2 7 8 8 6 4 12 14 15 13 10 8 8 10 13 12 9 10 12 8 4 5 7 5 5 5 7 7 7 8 8 6 6 7 7 7
Wind_Direction
243 244 236 234 244 229 210 207 207 206 205 203 201 198 199 199 195 194 193 193 194 193 194 196 193 190 185 184 185 188 196 197 196 189 197 219 217 210 192 196 203 209 157 47 15 83 69 19 5 2 3 349 342 15 334 188 69 61 100 140 233 219 204 226 219 198 164 160 175 192 176 140 142 150 131 45 77 95 85 67 53 51 48 91 128 141 146 150
243 246 244 237 245 240 214 206 206 205 205 204 201 199 198 197 196 193 192 192 192 192 194 194 195 194 192 189 185 185 187 193 199 203 215 220 215 209 200 195 188 188 145 77 73 83 69 9 338 344 7 4 318 18 1 303 83 123 142 163 221 212 215 276 261 205 156 154 169 175 174 153 159 159 136 110 117 114 94 64 69 81 69 96 121 134 142 149
245 247 249 239 241 244 217 205 205 204 203 204 203 201 198 197 196 194 193 193 193 192 193 194 195 195 194 189 181 181 179 190 217 227 228 224 218 214 204 203 191 164 126 99 90 90 88 38 317 324 26 4 305 51 29 300 264 181 139 173 237 227 245 326 344 280 187 146 150 166 168 162 177 162 134 133 141 143 136 150 123 120 128 123 130 137 143 149
252 248 248 238 236 243 221 203 203 204 202 203 203 200 198 197 196 195 192 192 193 190 189 192 191 192 193 187 183 182 167 189 251 235 234 225 219 216 204 203 197 170 141 124 112 96 87 64 344 349 49 352 293 57 103 236 239 194 152 192 240 234 256 300 327 312 218 146 150 162 139 153 188 157 143 137 137 182 190 181 163 152 151 144 146 145 148 153
257 250 247 240 235 241 227 207 202 204 202 201 202 200 198 197 196 195 192 190 189 186 184 186 186 187 185 179 180 171 147 3 233 223 234 221 211 212 205 203 199 183 154 147 149 106 70 61 48 29 32 333 333 34 231 231 181 224 227 207 237 210 186 279 305 318 278 138 138 149 144 159 162 135 164 153 159 209 201 187 168 156 156 155 156 154 154 158
257 253 248 242 236 238 228 210 203 203 202 201 201 200 198 198 196 194 192 188 185 184 183 182 182 179 176 172 171 166 162 221 152 170 233 216 206 204 199 199 197 189 169 160 160 127 45 45 54 55 29 337 330 314 254 258 169 222 273 207 233 217 175 279 314 311 289 133 139 157 160 140 126 164 187 163 191 220 206 190 166 160 162 158 156 158 162 167
254 253 248 240 235 237 229 210 202 201 200 198 199 199 199 198 196 193 191 187 184 184 182 181 179 172 169 163 163 171 202 239 177 90 293 210 202 196 191 194 192 188 176 153 136 112 55 46 58 109 64 321 289 260 272 300 195 204 271 225 231 161 163 224 267 311 31 131 163 149 137 139 142 169 181 170 212 223 238 205 166 159 158 155 158 165 170 174
251 250 248 240 236 236 234 220 203 199 200 197 198 199 199 198 196 193 189 186 183 182 180 179 175 170 167 159 157 177 228 235 231 296 312 198 192 188 183 184 187 184 173 159 145 133 119 89 241 107 95 239 265 271 298 335 247 205 249 228 198 82 201 213 130 333 26 109 136 115 124 163 166 152 171 199 206 208 201 142 153 151 151 158 166 171 173 176
251 247 246 241 237 234 233 230 209 197 197 196 195 197 198 198 196 193 190 186 181 180 178 175 172 170 168 159 155 192 219 226 232 285 270 186 180 182 179 175 179 176 168 165 152 144 145 155 208 147 193 240 266 274 1 34 280 232 246 211 152 142 258 267 114 351 350 53 98 109 108 169 193 156 187 201 193 203 118 111 139 146 154 167 170 173 174 177
250 245 243 238 235 231 226 227 214 198 197 195 193 193 194 194 194 192 189 185 181 180 178 176 172 168 166 159 167 204 226 220 220 255 208 179 177 177 177 173 172 168 160 159 150 148 150 163 181 161 244 255 260 261 197 136 220 285 263 178 143 152 199 282 155 192 331 10 102 120 125 179 284 178 219 212 182 173 115 115 138 147 162 171 171 177 176 179
247 242 240 233 229 229 221 221 216 201 195 194 191 190 190 190 190 189 188 185 182 180 179 178 174 170 168 165 183 201 223 206 211 223 187 178 178 173 175 173 169 164 155 150 155 160 161 171 177 115 268 248 254 259 243 210 230 323 316 81 104 132 172 260 139 191 193 41 131 114 112 311 9 224 224 208 176 158 129 136 149 154 169 173 173 180 179 186
245 239 235 228 223 223 217 217 216 201 193 191 190 189 187 188 188 187 187 185 183 182 179 176 175 171 165 174 204 202 216 202 201 201 186 182 179 177 180 176 170 167 159 150 162 169 168 174 175 186 245 275 283 260 255 256 9 251 258 300 298 60 295 213 157 196 154 165 189 123 88 275 226 223 224 190 173 160 138 151 160 162 172 173 176 179 183 192
237 234 229 221 218 218 213 214 213 199 190 188 187 188 187 187 188 187 186 185 183 181 177 176 175 167 159 185 214 209 231 211 189 181 179 181 176 176 182 177 169 169 166 161 169 174 174 180 184 209 254 294 271 255 231 337 65 210 221 212 250 2 287 226 177 161 142 208 217 145 179 256 231 229 222 183 168 154 147 164 170 171 174 175 178 179 188 193
226 226 221 215 214 214 210 211 208 194 185 184 184 186 185 185 186 185 184 181 178 178 179 175 169 161 161 190 200 211 230 195 176 171 171 172 164 163 175 173 169 170 173 172 175 175 179 193 204 229 269 246 249 299 331 335 77 204 210 205 167 153 266 256 175 150 152 244 110 126 204 252 251 248 218 184 168 156 164 178 178 180 179 177 180 180 190 194
219 217 212 211 211 210 207 206 204 191 183 180 180 181 181 180 182 182 178 173 173 178 175 168 162 152 158 213 192 197 191 163 170 171 170 167 155 153 167 168 169 174 176 176 177 177 184 196 198 225 258 242 245 290 295 292 176 184 193 237 216 170 261 307 193 166 157 202 118 127 212 260 269 270 214 179 168 161 171 186 187 189 186 182 183 183 190 195
212 208 205 206 206 207 205 203 201 190 180 177 176 177 177 175 175 175 172 168 173 175 165 161 165 156 153 191 172 169 162 164 177 172 169 169 161 156 161 159 160 167 167 163 169 177 182 183 166 214 240 242 220 194 234 270 235 221 171 206 212 182 233 316 244 209 155 136 183 177 207 251 275 288 193 168 171 167 171 189 194 196 196 189 185 185 188 191
205 201 200 202 201 203 201 200 198 187 177 173 171 171 171 168 167 167 164 165 171 168 160 163 164 149 122 151 157 167 165 166 173 167 166 172 167 155 153 149 140 147 139 134 155 167 169 171 166 212 218 221 209 169 195 220 207 223 165 196 228 184 181 212 261 242 150 142 198 202 217 253 278 297 196 175 169 167 178 195 197 199 201 196 192 190 190 191
199 196 196 196 196 197 195 195 195 186 176 170 168 166 163 159 159 157 153 156 157 142 141 163 155 139 218 179 171 173 162 156 162 163 165 173 170 160 153 145 138 136 123 120 153 164 160 172 175 205 218 211 213 180 188 211 183 170 166 189 250 213 177 192 229 216 160 159 197 182 231 261 269 274 238 228 186 177 192 197 198 200 198 196 195 196 198 198
194 193 192 191 190 193 194 191 189 182 171 166 164 158 149 144 148 148 146 149 144 123 132 187 177 166 184 176 172 162 158 156 155 155 158 164 164 159 148 135 140 138 139 157 184 177 163 142 172 208 218 204 211 189 187 210 179 164 175 180 201 213 220 212 234 244 165 159 205 193 211 243 247 241 236 249 227 202 215 209 203 204 199 198 197 201 204 203
191 190 188 187 186 190 192 184 178 172 165 160 154 146 137 136 138 141 147 152 171 170 137 189 190 152 95 152 146 141 148 149 145 150 160 160 153 148 133 124 139 148 157 165 176 178 165 170 197 207 205 199 205 194 205 233 210 141 161 188 199 198 240 257 258 298 144 152 218 214 219 251 252 241 232 225 214 223 237 230 221 211 200 200 200 204 205 208
188 187 185 183 182 185 183 174 168 166 163 157 152 148 153 158 157 163 157 160 203 212 69 179 199 266 114 144 138 135 134 134 133 155 163 159 152 150 148 146 150 168 172 159 149 149 173 195 205 195 192 198 202 205 223 245 260 120 137 177 215 204 217 266 264 305 349 157 243 240 235 262 258 248 242 195 180 217 222 217 222 218 208 204 202 207 208 210
185 184 181 180 181 183 178 171 166 164 161 157 158 166 165 159 162 162 154 143 195 215 261 179 207 302 123 143 146 144 132 119 131 157 166 158 158 164 162 161 161 172 174 159 149 158 189 207 198 179 188 204 208 210 221 238 243 215 110 140 214 210 182 306 320 331 15 164 266 334 239 256 260 256 248 189 189 221 217 208 215 212 209 210 206 208 207 206
182 180 177 178 178 177 174 170 168 164 160 162 168 175 161 153 140 148 141 94 165 199 297 180 200 234 132 145 153 150 141 150 152 174 174 159 163 174 155 163 169 166 172 173 168 169 189 211 193 179 189 204 217 214 214 236 239 204 113 122 224 205 151 229 290 320 14 120 179 50 341 272 273 279 269 219 210 229 224 215 220 212 209 214 207 201 199 200
178 177 176 175 173 170 166 164 166 166 166 169 170 163 156 147 144 142 120 66 144 199 231 185 188 176 163 149 155 156 147 152 152 172 176 162 152 159 157 166 168 167 180 178 167 168 189 193 177 175 189 199 206 205 205 219 241 234 156 143 197 196 156 174 176 126 13 359 111 84 359 301 262 257 263 244 223 234 229 217 230 232 226 225 217 207 202 201
176 176 175 173 172 167 161 160 165 167 167 169 163 158 154 149 151 143 109 83 140 183 194 182 197 203 169 145 155 156 127 138 156 167 175 168 154 149 162 171 171 175 179 170 157 169 201 183 157 171 188 194 192 190 194 188 203 251 221 175 176 168 140 121 120 93 46 337 293 114 37 293 287 260 253 256 249 250 232 209 223 227 227 228 223 220 215 210
174 174 172 172 168 161 159 162 166 164 163 170 163 160 157 152 151 139 106 75 159 152 157 164 184 185 165 152 152 131 122 153 162 159 167 170 163 151 162 171 168 174 172 165 159 175 205 132 167 183 179 184 188 186 193 174 162 221 243 199 163 140 124 128 134 106 111 252 287 96 151 257 315 307 260 257 255 258 246 222 228 226 222 220 218 221 217 214
174 172 169 167 161 158 159 160 162 162 166 173 163 159 157 156 154 136 107 8 196 158 145 152 176 172 165 168 160 142 153 154 126 158 173 173 169 141 161 173 151 167 168 157 180 205 151 140 190 191 162 171 182 191 197 155 138 208 243 149 137 133 138 147 137 126 182 226 319 21 123 218 300 280 266 261 243 267 266 240 239 232 226 225 225 227 217 214
173 170 167 163 161 162 162 156 160 167 169 161 158 158 158 160 159 129 121 187 170 144 136 144 173 166 156 163 164 157 153 141 133 181 184 171 172 108 161 185 165 169 178 168 187 241 144 168 194 185 155 166 183 192 182 143 134 232 228 141 144 145 147 142 123 119 116 101 301 312 101 183 273 273 293 310 268 286 280 246 240 231 226 227 228 228 221 217
171 169 167 163 162 164 161 158 161 160 154 153 153 158 158 157 152 110 154 190 135 129 141 137 161 161 139 155 171 162 138 147 150 171 161 166 184 78 160 189 159 152 165 159 170 212 192 186 189 174 167 183 191 193 171 152 156 216 165 99 82 85 94 103 114 113 77 84 243 260 204 178 278 284 304 324 276 273 267 250 241 232 229 229 229 228 222 218
170 170 167 161 157 156 152 156 157 150 150 150 149 152 148 138 138 152 193 185 127 143 154 142 167 160 147 157 175 162 149 150 128 135 141 157 162 37 149 156 114 120 60 48 120 201 284 249 151 155 178 180 156 128 146 171 159 133 101 69 55 40 40 50 62 95 103 267 250 240 202 171 274 281 251 230 228 233 244 260 264 253 246 237 235 233 224 219
168 168 165 160 154 150 148 151 157 155 154 149 144 145 139 94 151 169 180 158 123 145 155 146 159 157 156 162 170 166 153 118 132 147 157 160 155 186 163 139 113 111 97 74 62 346 14 50 147 338 240 146 107 90 6 343 139 114 97 95 85 18 14 22 3 47 157 252 259 251 196 165 224 264 244 243 256 245 224 236 253 254 257 255 252 247 234 225
165 166 165 161 155 153 153 154 157 158 156 151 145 145 143 129 188 174 158 151 151 172 164 151 158 164 165 165 165 164 145 127 159 160 161 163 173 188 180 179 170 147 164 165 131 36 30 17 275 342 292 155 115 119 22 358 103 111 114 121 118 66 30 26 300 283 221 248 256 267 188 182 232 250 255 268 277 269 235 216 235 241 243 249 244 230 211 193
167 165 165 163 156 154 154 152 154 156 156 151 145 156 160 157 180 165 148 176 177 174 166 157 163 167 166 167 165 156 135 141 171 165 157 155 166 195 221 221 176 150 168 167 128 121 25 315 313 2 303 210 140 154 143 160 169 135 140 136 137 136 102 193 242 262 259 261 266 277 258 250 276 259 247 246 253 264 256 226 237 240 234 227 215 201 185 177
172 163 162 160 155 155 154 153 156 157 155 150 145 168 171 168 176 159 161 193 168 157 161 156 157 160 165 170 164 155 141 147 167 157 152 154 165 195 221 218 187 132 118 149 155 160 165 247 255 172 227 294 162 171 154 150 157 168 161 137 148 163 147 184 201 199 233 264 296 297 251 195 201 252 243 231 245 270 278 251 228 221 227 221 210 210 202 211
170 161 155 151 149 152 154 156 158 157 155 154 154 167 176 172 170 163 168 175 150 150 152 149 148 152 167 174 166 167 147 141 169 157 158 174 180 191 197 200 193 150 135 166 184 160 154 181 287 278 288 112 158 245 111 127 149 207 149 123 166 182 146 146 180 177 176 179 279 258 236 208 208 273 273 251 253 271 274 271 245 225 249 273 231 233 224 230
162 155 148 143 145 152 156 158 159 158 156 160 165 174 185 181 175 167 165 160 158 153 145 148 151 154 166 168 169 176 146 124 167 164 174 184 186 194 192 194 193 176 162 163 153 151 149 139 322 331 355 57 162 253 307 133 165 181 133 167 205 169 121 119 236 123 107 200 254 194 239 284 318 300 289 277 265 272 281 286 270 259 286 308 263 247 242 243
152 144 138 142 150 155 157 158 159 158 159 167 176 183 186 188 170 149 149 146 148 146 141 150 165 163 166 163 173 178 156 141 169 172 178 179 191 197 193 199 195 187 181 157 144 176 145 116 322 21 81 265 194 161 334 4 141 132 158 196 192 98 98 116 192 352 73 235 269 171 207 272 346 279 313 327 288 271 270 266 264 271 278 267 255 248 244 244
139 135 130 149 156 156 156 157 157 156 161 174 187 192 186 186 147 125 131 135 138 145 147 156 169 172 173 169 174 175 164 166 180 176 172 180 213 197 183 195 197 187 186 153 147 191 132 113 313 4 190 270 344 96 145 325 102 141 183 187 120 130 180 150 173 204 195 227 276 279 232 240 193 220 294 305 275 264 271 276 266 256 249 247 259 263 260 259
133 131 122 157 157 155 154 154 153 152 168 179 191 193 175 176 155 135 137 141 144 151 156 162 164 172 181 173 167 170 171 175 176 174 180 187 225 199 178 181 186 183 183 157 157 188 139 125 244 296 284 274 359 77 168 220 345 39 56 144 103 151 181 171 172 172 166 209 256 287 285 259 226 215 226 242 246 246 267 289 258 241 241 239 252 263 262 255
139 126 127 161 158 153 150 148 149 166 180 188 194 182 159 164 158 146 146 146 149 154 160 166 164 164 175 169 158 166 172 170 170 179 194 179 191 205 183 175 168 174 176 159 158 170 144 127 163 282 324 154 188 213 179 177 174 132 147 180 189 40 112 154 191 157 143 181 216 240 271 263 249 214 204 227 241 228 228 240 230 233 246 246 247 252 257 251
145 126 141 163 155 148 145 140 160 180 187 198 194 171 166 158 137 150 152 145 143 133 141 159 166 164 165 163 161 167 162 157 171 181 192 176 177 205 193 173 160 162 161 160 167 169 154 123 135 164 198 182 224 244 194 186 182 165 176 185 182 148 120 158 223 247 126 180 187 189 244 259 250 212 204 216 222 221 216 207 222 244 251 254 255 251 255 252
141 132 150 159 154 150 147 149 179 184 193 192 179 149 161 147 135 155 155 145 146 127 126 154 165 161 164 166 161 164 160 159 177 180 178 181 181 189 184 163 153 158 160 164 171 154 117 105 111 146 192 211 246 261 208 175 301 208 212 191 173 162 141 162 204 215 176 215 180 159 239 258 244 212 208 207 204 221 222 201 224 255 251 255 266 271 273 260
132 132 148 157 158 157 156 161 175 188 194 173 167 172 164 137 144 155 154 153 153 139 140 159 164 162 170 167 157 160 163 163 182 182 151 148 183 198 169 156 151 158 160 160 169 150 92 97 103 86 293 297 305 310 342 49 45 251 255 129 149 200 162 157 184 167 168 208 181 176 250 261 247 208 206 219 222 240 248 221 227 253 264 271 271 276 277 267
117 120 138 157 164 169 171 167 175 183 178 166 171 186 102 120 149 155 158 162 155 150 156 162 167 169 169 164 162 167 168 165 186 185 143 139 187 200 159 158 159 165 172 177 177 170 124 136 125 104 74 353 342 314 294 23 75 217 236 188 181 206 152 117 130 126 191 209 171 178 242 251 259 239 223 246 267 275 265 235 217 241 264 275 267 264 270 267
121 128 108 152 170 182 197 175 175 174 170 171 171 166 140 147 164 160 157 158 144 143 151 154 159 155 146 150 155 167 170 160 165 176 141 138 172 332 164 169 168 171 178 165 158 150 144 163 151 142 164 190 196 214 214 168 129 224 217 195 194 195 174 151 126 152 221 216 161 192 237 237 263 321 289 287 305 296 274 247 221 232 240 248 254 263 276 266
132 139 119 122 169 204 236 326 157 165 169 170 168 168 154 146 157 155 149 153 141 124 124 137 139 126 135 148 145 165 176 140 116 162 155 149 164 317 195 177 172 169 158 146 147 135 117 165 187 185 193 191 180 185 152 134 149 204 198 181 189 194 178 150 128 181 202 164 174 223 235 231 226 244 283 292 277 259 274 286 288 275 266 262 258 261 265 255
120 154 153 143 149 198 233 288 209 171 176 174 170 176 162 147 149 158 147 160 157 133 115 134 146 146 159 158 151 167 171 121 110 158 154 144 159 50 100 146 160 161 146 144 152 132 114 189 205 193 197 181 154 160 155 150 172 195 183 175 188 181 163 167 199 207 160 129 227 233 228 236 234 214 237 259 251 253 267 271 276 280 280 277 272 286 291 278
93 164 172 160 161 179 196 212 201 184 178 177 171 160 157 151 156 164 165 153 153 145 130 144 167 168 166 162 155 158 161 137 141 160 151 141 149 118 70 51 43 150 141 139 151 121 129 194 200 167 174 178 154 158 163 164 179 186 175 179 184 175 176 193 215 213 165 183 235 229 207 238 237 201 213 230 228 245 255 259 277 289 270 265 266 308 305 273
50 118 188 341 187 180 180 180 183 183 180 178 168 157 161 161 162 164 144 139 156 165 154 158 177 175 165 161 153 152 166 165 163 171 158 148 150 132 116 113 45 44 117 128 140 105 129 183 184 145 148 186 177 172 170 165 167 178 185 188 184 184 193 202 214 214 194 215 246 241 222 250 246 200 206 219 216 233 258 295 300 242 239 247 229 226 245 244
26 87 135 52 83 166 137 119 145 175 185 181 172 169 168 166 165 161 146 157 165 178 170 166 173 169 160 161 157 167 181 175 164 166 150 140 154 151 145 160 140 87 105 129 144 32 115 179 173 126 129 204 201 162 140 146 157 173 195 202 197 196 202 209 215 213 202 234 253 255 252 262 257 175 197 216 203 186 148 250 245 241 247 241 211 220 235 240
336 285 164 137 125 147 144 145 158 172 183 186 184 177 173 173 169 156 139 169 163 164 169 162 158 150 148 159 165 175 181 168 158 164 158 154 166 172 161 166 152 132 124 146 151 108 123 159 109 111 143 224 209 122 101 97 113 167 223 216 205 200 203 211 214 199 195 221 239 246 252 259 234 155 193 186 140 150 205 231 242 252 249 223 210 226 235 241
330 302 209 138 102 155 160 157 164 177 187 189 186 182 176 175 168 153 141 4 141 149 147 141 138 131 143 166 178 177 168 153 152 159 156 149 147 134 130 151 153 148 152 160 150 139 149 149 142 145 162 237 219 133 122 95 89 251 243 211 195 200 202 205 219 215 207 208 214 229 241 236 150 167 194 159 145 198 226 230 233 243 243 227 221 230 238 244